TimeEDT,TemperatureF,Dew PointF,Humidity,Sea Level PressureIn,VisibilityMPH,Wind Direction,Wind SpeedMPH,Gust SpeedMPH,PrecipitationIn,Events,Conditions,WindDirDegrees,DateUTC
12:55 AM,64.4,62.6,94,29.93,9.0,SW,3.5,-,N/A,,Clear,220,2012-10-06 04:55:00
1:15 AM,62.6,62.6,100,29.93,7.0,SW,3.5,-,N/A,,Clear,220,2012-10-06 05:15:00
1:35 AM,62.6,62.6,100,29.92,7.0,SW,3.5,-,N/A,,Clear,230,2012-10-06 05:35:00
1:55 AM,62.6,62.6,100,29.91,5.0,Calm,Calm,-,N/A,,Clear,0,2012-10-06 05:55:00
2:35 AM,64.4,62.6,94,29.90,7.0,SW,3.5,-,N/A,,Clear,230,2012-10-06 06:35:00
2:55 AM,62.6,62.6,100,29.90,5.0,SW,4.6,-,N/A,,Clear,220,2012-10-06 06:55:00
3:15 AM,62.6,62.6,100,29.90,5.0,SW,4.6,-,N/A,,Clear,220,2012-10-06 07:15:00
3:35 AM,64.4,62.6,94,29.89,4.0,SSW,3.5,-,N/A,,Clear,210,2012-10-06 07:35:00
3:55 AM,62.6,62.6,100,29.89,4.0,SW,4.6,-,N/A,,Clear,220,2012-10-06 07:55:00
4:15 AM,62.6,62.6,100,29.89,4.0,SW,3.5,-,N/A,,Clear,220,2012-10-06 08:15:00
4:55 AM,62.6,62.6,100,29.89,3.0,SSW,4.6,-,N/A,,Clear,210,2012-10-06 08:55:00
5:35 AM,62.6,62.6,100,29.88,4.0,SSW,5.8,-,N/A,,Clear,200,2012-10-06 09:35:00
5:55 AM,62.6,62.6,100,29.88,5.0,SSW,5.8,-,N/A,,Clear,210,2012-10-06 09:55:00
6:15 AM,62.6,62.6,100,29.88,3.0,SSW,4.6,-,N/A,,Clear,210,2012-10-06 10:15:00
6:35 AM,62.6,62.6,100,29.88,3.0,SSW,5.8,-,N/A,,Clear,200,2012-10-06 10:35:00
6:55 AM,62.6,62.6,100,29.88,3.0,SSW,4.6,-,N/A,,Clear,210,2012-10-06 10:55:00
7:15 AM,64.4,62.6,94,29.88,4.0,SSW,4.6,-,N/A,,Clear,210,2012-10-06 11:15:00
7:35 AM,64.4,62.6,94,29.87,5.0,SW,6.9,-,N/A,,Clear,220,2012-10-06 11:35:00
7:55 AM,64.4,62.6,94,29.87,5.0,SW,5.8,-,N/A,,Clear,220,2012-10-06 11:55:00
8:15 AM,64.4,62.6,94,29.87,6.0,SSW,5.8,-,N/A,,Clear,200,2012-10-06 12:15:00
8:35 AM,66.2,62.6,88,29.87,7.0,SSW,5.8,-,N/A,,Clear,200,2012-10-06 12:35:00
8:55 AM,66.2,62.6,88,29.87,7.0,South,5.8,-,N/A,,Clear,190,2012-10-06 12:55:00
9:15 AM,68.0,62.6,83,29.87,8.0,South,5.8,-,N/A,,Clear,190,2012-10-06 13:15:00
9:35 AM,69.8,62.6,78,29.86,7.0,SSW,6.9,-,N/A,,Clear,200,2012-10-06 13:35:00
9:55 AM,69.8,62.6,78,29.86,10.0,SSW,9.2,-,N/A,,Clear,200,2012-10-06 13:55:00
10:15 AM,71.6,62.6,73,29.85,8.0,SSW,10.4,-,N/A,,Clear,200,2012-10-06 14:15:00
10:35 AM,71.6,62.6,73,29.84,8.0,SW,10.4,-,N/A,,Clear,220,2012-10-06 14:35:00
10:55 AM,71.6,62.6,73,29.84,8.0,SW,13.8,-,N/A,,Clear,230,2012-10-06 14:55:00
11:35 AM,73.4,60.8,65,29.82,10.0,SW,11.5,17.3,N/A,,Clear,220,2012-10-06 15:35:00
11:55 AM,73.4,60.8,65,29.82,9.0,SW,11.5,19.6,N/A,,Clear,230,2012-10-06 15:55:00
12:35 PM,75.2,60.8,61,29.79,9.0,SW,13.8,21.9,N/A,,Clear,220,2012-10-06 16:35:00
12:55 PM,73.4,60.8,65,29.78,9.0,SSW,10.4,23.0,N/A,,Clear,210,2012-10-06 16:55:00
1:35 PM,75.2,60.8,61,29.77,10.0,SSW,15.0,18.4,N/A,,Clear,210,2012-10-06 17:35:00
1:55 PM,75.2,60.8,61,29.77,10.0,SSW,12.7,21.9,N/A,,Clear,200,2012-10-06 17:55:00
2:15 PM,73.4,60.8,65,29.77,9.0,SSW,15.0,21.9,N/A,,Clear,200,2012-10-06 18:15:00
2:55 PM,75.2,60.8,61,29.77,10.0,SSW,8.1,19.6,N/A,,Scattered Clouds,210,2012-10-06 18:55:00
3:15 PM,73.4,60.8,65,29.77,10.0,SSW,11.5,19.6,N/A,,Scattered Clouds,210,2012-10-06 19:15:00
3:35 PM,71.6,62.6,73,29.77,10.0,SSW,6.9,-,N/A,,Mostly Cloudy,200,2012-10-06 19:35:00
3:55 PM,71.6,62.6,73,29.76,10.0,SW,12.7,17.3,N/A,,Mostly Cloudy,220,2012-10-06 19:55:00
4:15 PM,66.2,64.4,94,29.78,1.0,SSW,4.6,-,0.19,Rain,Light Rain,210,2012-10-06 20:15:00
4:35 PM,66.2,64.4,94,29.78,7.0,WSW,6.9,-,0.21,,Light Drizzle,240,2012-10-06 20:35:00
4:55 PM,66.2,64.4,94,29.79,7.0,West,6.9,-,0.21,,Mostly Cloudy,260,2012-10-06 20:55:00
5:15 PM,66.2,64.4,94,29.80,6.0,West,3.5,-,N/A,,Mostly Cloudy,280,2012-10-06 21:15:00
5:35 PM,60.8,55.4,82,29.83,10.0,NNW,12.7,25.3,N/A,,Overcast,340,2012-10-06 21:35:00
5:55 PM,59.0,53.6,82,29.85,10.0,NW,11.5,17.3,N/A,,Overcast,320,2012-10-06 21:55:00
6:15 PM,57.2,51.8,82,29.86,10.0,NNW,11.5,18.4,N/A,,Overcast,330,2012-10-06 22:15:00
6:35 PM,57.2,51.8,82,29.86,10.0,NNW,10.4,-,N/A,,Mostly Cloudy,340,2012-10-06 22:35:00
6:55 PM,57.2,51.8,82,29.87,10.0,NNW,8.1,-,N/A,,Partly Cloudy,340,2012-10-06 22:55:00
7:15 PM,57.2,48.2,72,29.88,10.0,NNW,8.1,-,N/A,,Clear,330,2012-10-06 23:15:00
7:35 PM,55.4,48.2,77,29.89,10.0,NNW,5.8,-,N/A,,Clear,330,2012-10-06 23:35:00
7:55 PM,55.4,48.2,77,29.90,10.0,NW,5.8,-,N/A,,Clear,320,2012-10-06 23:55:00
8:15 PM,53.6,48.2,82,29.91,10.0,Calm,Calm,-,N/A,,Clear,0,2012-10-07 00:15:00
8:35 PM,53.6,48.2,82,29.92,10.0,NW,4.6,-,N/A,,Clear,310,2012-10-07 00:35:00
8:55 PM,53.6,46.4,77,29.93,10.0,NW,6.9,-,N/A,,Clear,320,2012-10-07 00:55:00
9:15 PM,53.6,46.4,77,29.94,10.0,NW,6.9,-,N/A,,Clear,310,2012-10-07 01:15:00
9:35 PM,51.8,46.4,82,29.95,10.0,WNW,3.5,-,N/A,,Clear,300,2012-10-07 01:35:00
9:55 PM,51.8,46.4,82,29.95,10.0,Calm,Calm,-,N/A,,Clear,0,2012-10-07 01:55:00
10:15 PM,51.8,44.6,76,29.96,10.0,NW,5.8,-,N/A,,Clear,310,2012-10-07 02:15:00
10:35 PM,51.8,44.6,76,29.96,10.0,WNW,4.6,-,N/A,,Clear,300,2012-10-07 02:35:00
10:55 PM,51.8,44.6,76,29.97,10.0,Calm,Calm,-,N/A,,Clear,0,2012-10-07 02:55:00
11:15 PM,48.2,46.4,93,29.97,10.0,Calm,Calm,-,N/A,,Clear,0,2012-10-07 03:15:00
11:35 PM,48.2,46.4,93,29.97,10.0,Calm,Calm,-,N/A,,Clear,0,2012-10-07 03:35:00
11:55 PM,48.2,46.4,93,29.98,10.0,WSW,3.5,-,N/A,,Clear,240,2012-10-07 03:55:00